{"data":{"norad_id":67610,"epoch":"2026-09-19T22:11:16.173600Z","epoch_age_seconds":118682,"freshness":"FRESH","line1":"1 67610U 26018X   26262.92449275  .00011927  00000+0  37104-3 0  9994","line2":"2 67610  97.2856 333.1240 0000211 214.7757 145.3472 15.33456892 37543","mean_motion":15.33456892,"eccentricity":2.11e-5,"inclination_deg":97.2856,"raan_deg":333.124,"arg_perigee_deg":214.7757,"mean_anomaly_deg":145.3472,"bstar":0.00037104,"rev_number":3754,"period_min":93.905476411658,"perigee_km":465.3633915764,"apogee_km":465.65219338665,"semimajor_km":6843.6447924815,"source":"CELESTRAK","updated_at":"2026-09-20T09:00:43.607930Z"}}